Home > Weather > Elverum > Past weeks

Flag for Norway Weather for the Past 2 Weeks in Elverum, Norway

Now
35 °F

Chilly.


Feels Like: 35 °F
Forecast: 33 / 45 °F
Wind: 1 mph from Southeast

Location: Haugedalshogda

Current Time: May 1, 2016 at 9:00:59 AM

Latest Report: May 1, 2016 at 8:00 AM


Visibility: N/A

Pressure: 30.29 "Hg

Humidity: 98%

Dew Point: 35 °F

Location of ElverumLocation

Historic Weather in Elverum — Graph

°F

Elverum Temperature Yesterday

Maximum temperature yesterday: 43 °F (at 7:00 PM)
Minimum temperature yesterday: 34 °F (at 8:00 AM)
Average temperature yesterday: 38 °F

High & Low Weather Summary for the Past Weeks

 TemperatureHumidityPressure
High55 °F (Apr 18, 2:00 PM)99% (May 1, 6:00 AM)30.28 "Hg (May 1, 6:00 AM)
Low14 °F (Apr 23, 5:00 AM)20% (Apr 21, 4:00 PM)29.32 "Hg (Apr 18, 4:00 PM)
Average38 °F62%29.82 "Hg
* Reported Apr 16 6:00 AM — May 1 6:00 AM, Elverum, Weather by CustomWeather, © 2016

Note: Actual official high and low records may vary slightly from our data, if they occured in-between our weather recording intervals... More about our weather records

Advertising

Elverum Weather History for the Previous 24 Hours

Scroll right to see more
 ConditionsComfort  
Time TempWeatherWind HumidityBarometerVisibility
6:00 AM
Sun, May 1
34 °FChilly.1 mph99%30.28 "HgN/A
5:00 AM33 °FChilly.1 mph98%30.28 "HgN/A
2:00 AM36 °FChilly.2 mph98%30.27 "HgN/A
12:00 AM37 °FChilly.No wind97%30.27 "HgN/A
11:00 PM
Sat, Apr 30
37 °FChilly.1 mph96%30.25 "HgN/A
10:00 PM38 °FChilly.2 mph94%30.25 "HgN/A
9:00 PM42 °FQuite cool.3 mph96%30.22 "HgN/A
8:00 PM42 °FQuite cool.5 mph95%30.21 "HgN/A
7:00 PM43 °FQuite cool.3 mph97%30.20 "HgN/A
6:00 PM38 °FChilly.2 mph97%30.20 "HgN/A
5:00 PM37 °FChilly.3 mph97%30.19 "HgN/A
4:00 PM37 °FChilly.2 mph97%30.20 "HgN/A
3:00 PM38 °FChilly.2 mph98%30.20 "HgN/A
2:00 PM36 °FChilly.3 mph97%30.19 "HgN/A
1:00 PM36 °FChilly.2 mph97%30.19 "HgN/A
12:00 PM35 °FChilly.2 mph97%30.19 "HgN/A
9:00 AM35 °FChilly.1 mph97%30.18 "HgN/A
Weather by CustomWeather, © 2016

See weather overviewHow to use our weather pages